This is the latest recevied weather packets stored in our database for station/object AB8Y-13. If no packets are shown the sender has not sent any weather packets the latest 10 day(s).
| Time | Temp. | Humidity | Pressure | Rain* | Wind** | Luminosity | Snow |
|---|---|---|---|---|---|---|---|
| 1777680349 | 6.67° C | 51% | 1016 hPa | 0 mm | - | 12 W/m² | - |
| 1777680046 | 6.67° C | 55% | 1015.6 hPa | 0 mm | - | 15 W/m² | - |
| 1777679742 | 6.67° C | 51% | 1015.6 hPa | 0 mm | - | 19 W/m² | - |
| 1777679438 | 6.67° C | 51% | 1015.7 hPa | 0 mm | - | 23 W/m² | - |
| 1777679134 | 6.67° C | 48% | 1015.6 hPa | 0 mm | - | 23 W/m² | - |
| 1777678832 | 7.22° C | 50% | 1015.6 hPa | 0 mm | - | 26 W/m² | - |
| 1777678529 | 7.22° C | 51% | 1015.5 hPa | 0 mm | - | 34 W/m² | - |
| 1777678226 | 7.22° C | 50% | 1015.7 hPa | 0 mm | - | 36 W/m² | - |
| 1777677922 | 7.22° C | 49% | 1015.5 hPa | 0 mm | - | 45 W/m² | - |
| 1777677620 | 7.22° C | 49% | 1015.6 hPa | 0 mm | - | 47 W/m² | - |
| 1777677318 | 7.22° C | 48% | 1015.4 hPa | 0 mm | - | 48 W/m² | - |
| 1777677016 | 7.78° C | 50% | 1015.4 hPa | 0 mm | - | 52 W/m² | - |
| 1777676715 | 7.78° C | 48% | 1015.6 hPa | 0 mm | - | 60 W/m² | - |
| 1777676411 | 7.78° C | 54% | 1015.2 hPa | 0 mm | - | 64 W/m² | - |
| 1777676109 | 7.78° C | 55% | 1015.4 hPa | 0 mm | - | 67 W/m² | - |
| 1777675804 | 7.78° C | 50% | 1015.3 hPa | 0 mm | - | 79 W/m² | - |
| 1777675503 | 7.78° C | 54% | 1015.3 hPa | 0 mm | - | 99 W/m² | - |
| 1777675199 | 7.78° C | 51% | 1015.4 hPa | 0 mm | - | 110 W/m² | - |
| 1777674896 | 7.22° C | 53% | 1015.4 hPa | 0 mm | - | 121 W/m² | - |
| 1777674591 | 7.22° C | 54% | 1015.6 hPa | 0 mm | - | 103 W/m² | - |
| 1777674289 | 7.22° C | 55% | 1015.3 hPa | 0 mm | - | 76 W/m² | - |
| 1777673985 | 7.22° C | 57% | 1015.4 hPa | 0 mm | - | 77 W/m² | - |
| 1777673682 | 7.22° C | 56% | 1015.4 hPa | 0 mm | - | 61 W/m² | - |
| 1777673380 | 7.22° C | 55% | 1015.3 hPa | 0 mm | - | 73 W/m² | - |
| 1777673077 | 7.22° C | 54% | 1015.4 hPa | 0 mm | - | 87 W/m² | - |
* Rain latest hour (hover to see other rain measurements)
** Current wind speed in m/s (hover to see current wind gust speed)